Preview of NWS' New Version of Forecast
This preview is not operational and should not be used for support decisions.

Regional Weather Roundup (RWR)

Issued by National Weather Service (NWS)

                            
000
ASUS43 KDMX 220306
RWRIA 

WEATHER ROUNDUP FOR IOWA
NATIONAL WEATHER SERVICE DES MOINES IA
1000 PM CDT SUN APR 21 2019

NOTE: "FAIR" INDICATES FEW OR NO CLOUDS BELOW 12,000 FEET WITH NO
SIGNIFICANT WEATHER AND/OR OBSTRUCTIONS TO VISIBILITY.

* - THESE STATIONS ARE NOT NWS STATIONS...THUS NOT UNDER NWS
QUALITY CONTROL.  THEY ALSO DO NOT REPORT WEATHER SUCH 
AS PRECIPITATION OR FOG.  

IAZ001>003-012>014-020>022-031>034-043>046-220400-
   NORTHWEST IOWA
  
CITY           SKY/WX    TMP DP  RH WIND       PRES   REMARKS
CARROLL *      CLOUDY    70  48  46 SE9       29.77R                  
CHEROKEE *     CLOUDY    69  51  53 E5        29.75R                  
DENISON *      CLOUDY    73  46  38 SE14G21   29.76R                  
LE MARS *      CLOUDY    68  54  60 N13       29.74R                  
SHELDON *      MOCLDY    63  52  67 NE23G30   29.76S                  
SIOUX CITY     CLOUDY    71  52  50 NE10      29.70R                  
SPENCER        CLOUDY    70  51  51 NE9       29.77S                  
STORM LAKE *   CLOUDY    70  48  46 S9        29.74R                  
$$
 
IAZ055>058-069>071-079>083-090>094-220400-
   SOUTHWEST IOWA
  
CITY           SKY/WX    TMP DP  RH WIND       PRES   REMARKS
ATLANTIC *     CLEAR     73  45  35 S8        29.77R                  
AUDUBON *      MOCLDY    70  46  43 CALM      29.79R                  
CLARINDA *     MOCLDY    73  45  35 S12       29.79R                  
COUNCIL BLFS * MOCLDY    73  48  40 S17       29.74R                  
CRESTON *      PTCLDY    70  46  43 S13       29.81R                  
HARLAN  *      MOCLDY    73  46  38 S14       29.76R                  
LAMONI         PTCLDY    72  46  39 S8        29.83R                  
RED OAK *      PTCLDY    75  46  35 S15G22    29.76R                  
SHENANDOAH *   CLOUDY    75  46  35 S15G25    29.74R                  
$$
 
IAZ047>049-059>061-072>074-084-220400-
   CENTRAL IOWA
  
CITY           SKY/WX    TMP DP  RH WIND       PRES   REMARKS
AMES           MOCLDY    70  49  47 SE10      29.82R                  
ANKENY *       CLOUDY    75  46  35 S14       29.83R                  
BOONE *        CLOUDY    70  48  46 SE14      29.80S                  
CHARITON *     CLOUDY    72  46  40 SE12      29.84R                  
DES MOINES     CLOUDY    75  44  33 SE14      29.82R                  
GRINNELL*      PTCLDY    70  47  44 SE9       29.88R                  
KNOXVILLE *    CLOUDY    73  45  35 SE8       29.85R                  
MARSHALLTOWN   CLOUDY    73  48  41 S18       29.84R                  
NEWTON *       CLOUDY    70  48  46 SE14      29.85S                  
PELLA *        CLOUDY    73  45  36 SE8       29.87R                  
PERRY *        CLOUDY    74  43  32 S13       29.79S                  
$$
 
IAZ004>006-015-016-023>025-035-036-220400-
   NORTH CENTRAL IOWA
  
CITY           SKY/WX    TMP DP  RH WIND       PRES   REMARKS
ALGONA *       MOCLDY    72  48  43 SE17G28   29.79R                  
CLARION *      MOCLDY    70  46  43 SE17      29.82R                  
ESTHERVILLE    CLOUDY    63  53  70 N12       29.80R                  
FORT DODGE *   MOCLDY    71  49  45 SE10      29.80R                  
MASON CITY     CLOUDY    67  50  54 SE9       29.84R                  
FOREST CITY *  FAIR      66  46  48 SE10      29.82R                  
IOWA FALLS *   FAIR      71  48  43 SE13      29.85R                  
$$

IAZ007>011-017>019-026>030-037>042-050>054-066-220400-
   NORTHEAST IOWA
  
CITY           SKY/WX    TMP DP  RH WIND       PRES   REMARKS
CEDAR RAPIDS   FAIR      69  47  45 SE10      29.89R                  
CHARLES CITY * FAIR      70  46  43 SE12      29.86R                  
CLINTON *      FAIR      68  46  45 SE13      29.96R                  
DECORAH *      FAIR      72  46  40 S12       29.88R                  
DUBUQUE        FAIR      64  45  49 S13       29.93R                  
MONTICELLO *   FAIR      70  45  40 SE15      29.91R                  
OELWEIN *      FAIR      70  48  46 S13       29.89R                  
WATERLOO       FAIR      72  46  39 SE9       29.86R                  
$$
 
IAZ064-065-067-068-078-220400-
   EAST CENTRAL IOWA
  
CITY           SKY/WX    TMP DP  RH WIND       PRES   REMARKS
DAVENPORT      FAIR      71  43  36 SE14      29.96R                  
IOWA CITY      FAIR      69  46  43 E6        29.92R                  
MT. PLEASANT * CLOUDY    70  46  43 S17       29.91R                  
MUSCATINE *    FAIR      72  43  35 SE12G18   29.92R                  
QUAD CITIES    FAIR      71  45  39 SE13      29.93S                  
$$
 
IAZ062-063-075>077-085>089-095>099-220400-
   SOUTHEAST IOWA
  
CITY           SKY/WX    TMP DP  RH WIND       PRES   REMARKS
BURLINGTON     PTCLDY    70  45  40 S14G24    29.93R                  
FAIRFIELD *    MOCLDY    68  45  42 SE9       29.89R                  
FORT MADISON * CLOUDY    70  46  43 SE13G20   29.93R                  
KEOKUK *       PTCLDY    72  45  37 SE12      29.92R                  
OSKALOOSA *    FAIR      68  46  45 SE9       29.88R                  
CENTERVILLE *  FAIR      68  46  45 E8        29.88R                  
OTTUMWA        CLOUDY    67  48  50 SE8       29.88R                  
WASHINGTON *   CLOUDY    70  45  40 S15G21    29.91R                  
$$

ABBREVIATIONS USED IN REMARKS
   TC - TEMPERATURES IN CELSIUS
  WCI - WIND CHILL INDEX
   HX - HEAT INDEX
  VSB - VISIBILITY  
$$